GSAT0207 (GALILEO 15)

Last updated on Mon Sep 21 2026 00:02:49 GMT+0000 (Coordinated Universal Time)

1 41859U 16069A 26262.77251046 .00000026 00000+0 00000+0 0 9995 2 41859 55.5593 98.4673 0002821 1.3168 358.7589 1.70474001 61017
UTC large
Height (km)
Speed (km/s)
/
Latitude / Longitude
Inclination (degrees)
Orbital Period (minutes)
Azimuth
Elevation
Range (km)
Doppler Factor

Next 0 passes for location: London (51.5072 / 0.1276)

No passes found over London.